DW4604 Weather Reports


time (UTC)temp
F
wind
direction
speed
knots
gust
knots
rain 1hr
in
rain 24hr
in
rain mn
in
humidity
%
barometer
mb
20260510220931 51 0 0.0 0.0 0.00 0.00 0.00 74 1008.1
20260510220431 51 0 0.0 0.0 0.00 0.00 0.00 74 1008.2
20260510215933 51 0 0.0 0.0 0.00 0.00 0.00 74 1008.3
20260510215432 51 0 0.0 0.0 0.00 0.00 0.00 74 1008.3
20260510214931 51 0 0.0 0.0 0.00 0.00 0.00 74 1008.4
20260510214432 51 0 0.0 0.0 0.00 0.00 0.00 74 1008.4
20260510213932 51 0 0.0 0.0 0.00 0.00 0.00 73 1008.4
20260510213432 52 0 0.0 0.0 0.00 0.00 0.00 73 1008.5
20260510212932 52 0 0.0 0.0 0.00 0.00 0.00 72 1008.6
20260510212432 52 0 0.0 0.0 0.00 0.00 0.00 72 1008.6
20260510211932 53 0 0.0 0.0 0.00 0.00 0.00 72 1008.7
20260510211433 53 0 0.0 0.0 0.00 0.00 0.00 71 1008.8
20260510210932 53 0 0.0 0.0 0.00 0.00 0.00 71 1008.9
20260510210432 53 0 0.0 0.0 0.00 0.00 0.00 71 1008.9
20260510205932 53 0 0.0 0.0 0.00 0.00 0.00 71 1008.9
20260510205433 54 0 0.0 0.0 0.00 0.00 0.00 70 1008.9
20260510204932 54 0 0.0 0.0 0.00 0.00 0.00 69 1009.0
20260510204434 54 0 0.0 0.0 0.00 0.00 0.00 68 1009.0
20260510203932 55 0 0.0 0.0 0.00 0.00 0.00 67 1009.0
20260510203432 55 0 0.0 0.0 0.00 0.00 0.00 67 1009.1
20260510202933 55 0 0.0 0.0 0.00 0.00 0.00 68 1009.1
20260510202433 55 0 0.0 0.0 0.00 0.00 0.00 68 1009.1
20260510201932 55 0 0.0 0.0 0.00 0.00 0.00 67 1009.1
20260510201433 55 0 0.0 0.0 0.00 0.00 0.00 67 1009.1
20260510200932 56 0 0.0 0.0 0.00 0.00 0.00 67 1009.1
20260510195934 56 0 0.0 0.0 0.00 0.00 0.00 66 1009.4
20260510195433 56 0 0.0 0.0 0.00 0.00 0.00 67 1009.4
20260510194932 56 0 0.0 0.0 0.00 0.00 0.00 66 1009.5
20260510193933 56 0 0.0 0.0 0.00 0.00 0.00 66 1009.5
20260510192433 57 0 0.0 0.0 0.00 0.00 0.00 66 1009.5
20260510190933 57 0 0.0 0.0 0.00 0.00 0.00 65 1009.6
20260510190434 57 0 0.0 0.0 0.00 0.00 0.00 65 1009.7
20260510185934 57 0 0.0 0.0 0.00 0.00 0.00 65 1009.6
20260510185432 57 0 0.0 0.0 0.00 0.00 0.00 64 1009.6
20260510184934 58 0 0.0 0.0 0.00 0.00 0.00 64 1009.7
20260510183933 58 0 0.0 0.0 0.00 0.00 0.00 63 1009.6
20260510183434 58 0 0.0 0.0 0.00 0.00 0.00 64 1009.6
20260510182934 58 0 0.0 0.0 0.00 0.00 0.00 63 1009.6
20260510182433 59 0 0.0 0.0 0.00 0.00 0.00 62 1009.6
20260510181933 59 0 0.0 0.0 0.00 0.00 0.00 62 1009.6
20260510181434 59 0 0.0 0.0 0.00 0.00 0.00 61 1009.5
20260510180933 60 0 0.0 0.0 0.00 0.00 0.00 60 1009.5
20260510180433 60 0 0.0 0.0 0.00 0.00 0.00 60 1009.5
20260510175933 61 0 0.0 0.0 0.00 0.00 0.00 59 1009.5
20260510175434 61 0 0.0 0.0 0.00 0.00 0.00 58 1009.5
20260510174934 61 0 0.0 0.0 0.00 0.00 0.00 59 1009.5
20260510174432 61 0 0.0 0.0 0.00 0.00 0.00 58 1009.5
20260510173432 62 0 0.0 0.0 0.00 0.00 0.00 56 1009.5
20260510172933 62 0 0.0 0.0 0.00 0.00 0.00 55 1009.5
20260510172433 63 0 0.0 0.0 0.00 0.00 0.00 55 1009.5
20260510171934 63 0 0.0 0.0 0.00 0.00 0.00 54 1009.5
20260510171432 64 0 0.0 0.0 0.00 0.00 0.00 52 1009.4
20260510170434 64 0 0.0 0.0 0.00 0.00 0.00 51 1009.6
20260510165934 65 0 0.0 0.0 0.00 0.00 0.00 50 1009.6
20260510165434 65 0 0.0 0.0 0.00 0.00 0.00 48 1009.7
20260510164933 66 0 0.0 0.0 0.00 0.00 0.00 48 1009.7
20260510164433 66 0 0.0 0.0 0.00 0.00 0.00 49 1009.7
20260510163933 66 0 0.0 0.0 0.00 0.00 0.00 49 1009.8
20260510162434 67 0 0.0 0.0 0.00 0.00 0.00 46 1009.9
20260510161933 67 0 0.0 0.0 0.00 0.00 0.00 46 1010.0
20260510161434 67 0 0.0 0.0 0.00 0.00 0.00 45 1010.1
20260510160933 67 0 0.0 0.0 0.00 0.00 0.00 44 1010.1
20260510160433 68 0 0.0 0.0 0.00 0.00 0.00 46 1010.2
20260510155934 68 0 0.0 0.0 0.00 0.00 0.00 45 1010.1
20260510153933 68 0 0.0 0.0 0.00 0.00 0.00 46 1010.4
20260510153433 68 0 0.0 0.0 0.00 0.00 0.00 43 1010.4
20260510152933 68 0 0.0 0.0 0.00 0.00 0.00 46 1010.5
20260510152434 68 0 0.0 0.0 0.00 0.00 0.00 45 1010.5
20260510151933 68 0 0.0 0.0 0.00 0.00 0.00 43 1010.6
20260510150933 68 0 0.0 0.0 0.00 0.00 0.00 42 1010.7
20260510150433 68 0 0.0 0.0 0.00 0.00 0.00 44 1010.8
20260510145935 68 0 0.0 0.0 0.00 0.00 0.00 45 1010.8
20260510145434 68 0 0.0 0.0 0.00 0.00 0.00 45 1010.8
20260510144433 68 0 0.0 0.0 0.00 0.00 0.00 47 1010.9
20260510143935 69 0 0.0 0.0 0.00 0.00 0.00 44 1011.0
20260510143434 69 0 0.0 0.0 0.00 0.00 0.00 45 1011.2
20260510142933 69 0 0.0 0.0 0.00 0.00 0.00 43 1011.2
20260510142434 69 0 0.0 0.0 0.00 0.00 0.00 44 1011.3
20260510141933 69 0 0.0 0.0 0.00 0.00 0.00 45 1011.3
20260510141433 69 0 0.0 0.0 0.00 0.00 0.00 46 1011.4
20260510140933 69 0 0.0 0.0 0.00 0.00 0.00 45 1011.4
20260510140434 69 0 0.0 0.0 0.00 0.00 0.00 41 1011.5
20260510135934 69 0 0.0 0.0 0.00 0.00 0.00 45 1011.5
20260510135434 69 0 0.0 0.0 0.00 0.00 0.00 41 1011.6
20260510134934 69 0 0.0 0.0 0.00 0.00 0.00 46 1011.6
20260510134433 69 0 0.0 0.0 0.00 0.00 0.00 43 1011.7
20260510133433 69 0 0.0 0.0 0.00 0.00 0.00 43 1011.9
20260510132934 69 0 0.0 0.0 0.00 0.00 0.00 44 1012.1
20260510131934 69 0 0.0 0.0 0.00 0.00 0.00 47 1012.1
20260510131434 68 0 0.0 0.0 0.00 0.00 0.00 42 1012.2
20260510130933 69 0 0.0 0.0 0.00 0.00 0.00 45 1012.1
20260510124934 69 0 0.0 0.0 0.00 0.00 0.00 51 1012.3
20260510124434 68 0 0.0 0.0 0.00 0.00 0.00 47 1012.3
20260510123934 68 0 0.0 0.0 0.00 0.00 0.00 46 1012.4
20260510123434 68 0 0.0 0.0 0.00 0.00 0.00 49 1012.4
20260510122935 68 0 0.0 0.0 0.00 0.00 0.00 49 1012.5
20260510122434 68 0 0.0 0.0 0.00 0.00 0.00 45 1012.5
20260510121934 67 0 0.0 0.0 0.00 0.00 0.00 45 1012.6
20260510121435 67 0 0.0 0.0 0.00 0.00 0.00 49 1012.7
20260510120935 68 0 0.0 0.0 0.00 0.00 0.00 47 1012.8
20260510120434 67 0 0.0 0.0 0.00 0.00 0.00 48 1012.9
20260510115934 67 0 0.0 0.0 0.00 0.00 0.00 49 1012.9
20260510115434 67 0 0.0 0.0 0.00 0.00 0.00 48 1012.9
20260510114936 67 0 0.0 0.0 0.00 0.00 0.00 46 1013.0
20260510114435 67 0 0.0 0.0 0.00 0.00 0.00 49 1013.1
20260510113934 67 0 0.0 0.0 0.00 0.00 0.00 45 1013.2
20260510112434 67 0 0.0 0.0 0.00 0.00 0.00 47 1013.3
20260510111935 66 0 0.0 0.0 0.00 0.00 0.00 48 1013.4
20260510110434 66 0 0.0 0.0 0.00 0.00 0.00 49 1013.5
20260510105934 66 0 0.0 0.0 0.00 0.00 0.00 49 1013.7
20260510105436 66 0 0.0 0.0 0.00 0.00 0.00 49 1013.7
20260510104934 66 0 0.0 0.0 0.00 0.00 0.00 52 1013.9
20260510104435 65 0 0.0 0.0 0.00 0.00 0.00 50 1014.1
20260510103934 65 0 0.0 0.0 0.00 0.00 0.00 50 1014.2
20260510103434 65 0 0.0 0.0 0.00 0.00 0.00 52 1014.3
20260510102935 65 0 0.0 0.0 0.00 0.00 0.00 51 1014.4
20260510102434 65 0 0.0 0.0 0.00 0.00 0.00 52 1014.6
20260510100935 65 0 0.0 0.0 0.00 0.00 0.00 54 1014.9
20260510100435 64 0 0.0 0.0 0.00 0.00 0.00 54 1014.8
20260510095935 64 0 0.0 0.0 0.00 0.00 0.00 53 1014.7
20260510095434 64 0 0.0 0.0 0.00 0.00 0.00 53 1014.8
20260510094934 64 0 0.0 0.0 0.00 0.00 0.00 56 1014.8
20260510094434 64 0 0.0 0.0 0.00 0.00 0.00 53 1014.9
20260510093935 64 0 0.0 0.0 0.00 0.00 0.00 56 1015.0
20260510093434 64 0 0.0 0.0 0.00 0.00 0.00 53 1015.0
20260510092934 63 0 0.0 0.0 0.00 0.00 0.00 55 1015.1
20260510091435 64 0 0.0 0.0 0.00 0.00 0.00 56 1015.2
20260510090435 63 0 0.0 0.0 0.00 0.00 0.00 59 1015.4
20260510085935 63 0 0.0 0.0 0.00 0.00 0.00 59 1015.5
20260510085434 62 0 0.0 0.0 0.00 0.00 0.00 57 1015.4
20260510084935 62 0 0.0 0.0 0.00 0.00 0.00 56 1015.5
20260510084434 62 0 0.0 0.0 0.00 0.00 0.00 57 1015.6
20260510083935 62 0 0.0 0.0 0.00 0.00 0.00 59 1015.7
20260510083435 62 0 0.0 0.0 0.00 0.00 0.00 61 1015.7
20260510082935 62 0 0.0 0.0 0.00 0.00 0.00 59 1015.8
20260510082437 62 0 0.0 0.0 0.00 0.00 0.00 59 1015.8
20260510081935 62 0 0.0 0.0 0.00 0.00 0.00 60 1015.9
20260510081435 62 0 0.0 0.0 0.00 0.00 0.00 62 1015.9
20260510080436 61 0 0.0 0.0 0.00 0.00 0.00 63 1016.0
20260510075935 61 0 0.0 0.0 0.00 0.00 0.00 61 1016.1
20260510075435 60 0 0.0 0.0 0.00 0.00 0.00 62 1016.1
20260510074934 60 0 0.0 0.0 0.00 0.00 0.00 61 1016.1
20260510074436 60 0 0.0 0.0 0.00 0.00 0.00 63 1016.0
20260510073935 59 0 0.0 0.0 0.00 0.00 0.00 64 1016.2
20260510073434 59 0 0.0 0.0 0.00 0.00 0.00 64 1016.3
20260510072436 58 0 0.0 0.0 0.00 0.00 0.00 65 1016.2
20260510071936 58 0 0.0 0.0 0.00 0.00 0.00 67 1016.2
20260510071435 58 0 0.0 0.0 0.00 0.00 0.00 67 1016.2
20260510070936 57 0 0.0 0.0 0.00 0.00 0.00 68 1016.3
20260510070435 57 0 0.0 0.0 0.00 0.00 0.00 68 1016.3
20260510065935 56 0 0.0 0.0 0.00 0.00 0.00 68 1016.1
20260510064935 56 0 0.0 0.0 0.00 0.00 0.00 71 1016.1
20260510063935 55 0 0.0 0.0 0.00 0.00 0.00 75 1016.1
20260510063435 54 0 0.0 0.0 0.00 0.00 0.00 78 1016.2
20260510062936 53 0 0.0 0.0 0.00 0.00 0.00 79 1016.2
20260510062435 53 0 0.0 0.0 0.00 0.00 0.00 84 1016.1
20260510061436 52 0 0.0 0.0 0.00 0.00 0.00 88 1016.2
20260510060936 51 0 0.0 0.0 0.00 0.00 0.00 91 1016.3
20260510060436 51 0 0.0 0.0 0.00 0.00 0.00 92 1016.3
20260510055935 50 0 0.0 0.0 0.00 0.00 0.00 93 1016.4
20260510055435 49 0 0.0 0.0 0.00 0.00 0.00 94 1016.5
20260510054435 48 0 0.0 0.0 0.00 0.00 0.00 94 1016.6
20260510053936 47 0 0.0 0.0 0.00 0.00 0.00 94 1016.7
20260510053435 47 0 0.0 0.0 0.00 0.00 0.00 94 1016.7
20260510051436 46 0 0.0 0.0 0.00 0.00 0.00 94 1016.8
20260510050936 46 0 0.0 0.0 0.00 0.00 0.00 95 1016.7
20260510050435 45 0 0.0 0.0 0.00 0.00 0.00 95 1016.8
20260510045937 44 0 0.0 0.0 0.00 0.00 0.00 94 1016.7
20260510045437 42 0 0.0 0.0 0.00 0.00 0.00 94 1016.8
20260510044936 41 0 0.0 0.0 0.00 0.00 0.00 94 1016.7
20260510043936 39 0 0.0 0.0 0.00 0.00 0.00 94 1016.9
20260510043436 38 0 0.0 0.0 0.00 0.00 0.00 94 1017.0
20260510042936 38 0 0.0 0.0 0.00 0.00 0.00 94 1017.1
20260510042435 37 0 0.0 0.0 0.00 0.00 0.00 94 1017.0
20260510041936 37 0 0.0 0.0 0.00 0.00 0.00 93 1016.8
20260510041436 37 0 0.0 0.0 0.00 0.00 0.00 93 1016.9
20260510040437 36 0 0.0 0.0 0.00 0.00 0.00 93 1016.8
20260510035435 36 0 0.0 0.0 0.00 0.00 0.00 93 1016.9
20260510034935 35 0 0.0 0.0 0.00 0.00 0.00 93 1016.9
20260510034435 35 0 0.0 0.0 0.00 0.00 0.00 93 1017.0
20260510033935 35 0 0.0 0.0 0.00 0.00 0.00 93 1017.0
20260510032436 35 0 0.0 0.0 0.00 0.00 0.00 93 1016.9
20260510031935 36 0 0.0 0.0 0.00 0.00 0.00 93 1017.0
20260510030935 36 0 0.0 0.0 0.00 0.00 0.00 93 1017.0
20260510030435 36 0 0.0 0.0 0.00 0.00 0.00 93 1017.0
20260510025936 36 0 0.0 0.0 0.00 0.00 0.00 93 1016.9
20260510025436 36 0 0.0 0.0 0.00 0.00 0.00 93 1017.0
20260510024937 36 0 0.0 0.0 0.00 0.00 0.00 93 1016.9
20260510024436 36 0 0.0 0.0 0.00 0.00 0.00 93 1016.9
20260510022936 36 0 0.0 0.0 0.00 0.00 0.00 93 1016.9
20260510022435 36 0 0.0 0.0 0.00 0.00 0.00 93 1016.9
20260510021935 36 0 0.0 0.0 0.00 0.00 0.00 93 1017.1
20260510021436 37 0 0.0 0.0 0.00 0.00 0.00 93 1017.2
20260510020935 37 0 0.0 0.0 0.00 0.00 0.00 93 1017.2
20260510020436 37 0 0.0 0.0 0.00 0.00 0.00 93 1017.2
20260510015936 37 0 0.0 0.0 0.00 0.00 0.00 93 1017.2
20260510014936 37 0 0.0 0.0 0.00 0.00 0.00 93 1017.3
20260510014436 37 0 0.0 0.0 0.00 0.00 0.00 93 1017.3
20260510013936 37 0 0.0 0.0 0.00 0.00 0.00 93 1017.4
20260510013436 37 0 0.0 0.0 0.00 0.00 0.00 93 1017.3
20260510012936 38 0 0.0 0.0 0.00 0.00 0.00 93 1017.3
20260510011436 37 0 0.0 0.0 0.00 0.00 0.00 93 1017.3
20260510010937 38 0 0.0 0.0 0.00 0.00 0.00 93 1017.3
20260510010438 37 0 0.0 0.0 0.00 0.00 0.00 93 1017.3
20260510005936 38 0 0.0 0.0 0.00 0.00 0.00 93 1017.4
20260510005437 38 0 0.0 0.0 0.00 0.00 0.00 93 1017.4
20260510004937 38 0 0.0 0.0 0.00 0.00 0.00 92 1017.4
20260510003936 38 0 0.0 0.0 0.00 0.00 0.00 92 1017.5
20260510003436 38 0 0.0 0.0 0.00 0.00 0.00 93 1017.5
20260510002936 38 0 0.0 0.0 0.00 0.00 0.00 93 1017.5
20260510001936 38 0 0.0 0.0 0.00 0.00 0.00 92 1017.7
20260510000936 39 0 0.0 0.0 0.00 0.00 0.00 92 1017.6
20260510000436 39 0 0.0 0.0 0.00 0.00 0.00 92 1017.7
20260509235936 39 0 0.0 0.0 0.00 0.00 0.00 93 1017.7
20260509235437 39 0 0.0 0.0 0.00 0.00 0.00 92 1017.7
20260509234936 39 0 0.0 0.0 0.00 0.00 0.00 92 1017.7
20260509233936 39 0 0.0 0.0 0.00 0.00 0.00 92 1017.8
20260509232937 39 0 0.0 0.0 0.00 0.00 0.00 92 1017.8
20260509232438 39 0 0.0 0.0 0.00 0.00 0.00 92 1017.8
20260509231437 40 0 0.0 0.0 0.00 0.00 0.00 92 1017.9
20260509230937 40 0 0.0 0.0 0.00 0.00 0.00 92 1018.0
20260509230438 40 0 0.0 0.0 0.00 0.00 0.00 92 1018.0
20260509225937 40 0 0.0 0.0 0.00 0.00 0.00 92 1018.1
20260509225437 40 0 0.0 0.0 0.00 0.00 0.00 92 1018.1
20260509224938 40 0 0.0 0.0 0.00 0.00 0.00 92 1018.0
20260509224437 40 0 0.0 0.0 0.00 0.00 0.00 92 1018.1
20260509223936 40 0 0.0 0.0 0.00 0.00 0.00 92 1018.1
20260509223436 41 0 0.0 0.0 0.00 0.00 0.00 92 1018.2
20260509222936 41 0 0.0 0.0 0.00 0.00 0.00 92 1018.3
20260509222437 41 0 0.0 0.0 0.00 0.00 0.00 92 1018.3
20260509221937 41 0 0.0 0.0 0.00 0.00 0.00 92 1018.4
20260509221436 41 0 0.0 0.0 0.00 0.00 0.00 92 1018.4